Regional Weather Roundup
Issued by NWS

Home | Current Version | Previous Version | Graphics & Text | Print | Product List | Glossary On
Versions: 1 2 3 4 5 6 7 8 9 10 11 12 13 14 15 16 17 18 19 20 21 22 23 24 25 26 27 28 29 30 31 32 33 34 35 36 37 38 39 40 41 42 43 44 45 46 47 48 49 50
000
ASUS44 KMEG 301710
RWRTN
TENNESSEE HOURLY STATE WEATHER ROUNDUP
NATIONAL WEATHER SERVICE MEMPHIS TN
1200 PM CDT SUN AUG 30 2015

TNZ002-004-019-021-049-052-054-088>092-301800-
WEST TENNESSEE

CITY           SKY/WX    TMP DP  RH WIND       PRES   REMARKS
MEMPHIS INTL   CLOUDY    80  70  71 CALM      30.08S
NWS MEMPHIS      N/A     83 N/A N/A MISG        N/A
JACKSON        MOSUNNY   81  70  69 CALM      30.10S
DYERSBURG      PTSUNNY  N/A N/A N/A MISG        N/A
UNION CITY     PTSUNNY   79  72  78 E5        30.09S
PARIS          MOSUNNY   82  70  65 SE6       30.11S
LEXINGTON      SUNNY     82  70  65 S6        30.11F
$$

TNZ008-025-027-028-033-062-065-066-301800-
NORTH MIDDLE TENNESSEE

CITY           SKY/WX    TMP DP  RH WIND       PRES   REMARKS
NASHVILLE      CLOUDY    79  66  65 S12       30.16S
CLARKSVILLE    PTSUNNY   81  67  62 S9        30.12S
SMYRNA         LGT RAIN  75  70  85 SE7       30.17S
COOKEVILLE     SUNNY     79  70  73 CALM      30.17F
CROSSVILLE     CLOUDY    76  61  59 S5        30.22S
$$

TNZ061-075-076-078-094-096-097-301800-
SOUTH MIDDLE TENNESSEE

CITY           SKY/WX    TMP DP  RH WIND       PRES   REMARKS
FAYETTEVILLE   PTSUNNY   70  64  83 CALM      30.18S
TULLAHOMA      MOSUNNY   70  64  83 SW3       30.19F
WINCHESTER     CLOUDY    72  64  78 S7        30.19S
MCMINNVILLE    MOSUNNY   75  70  83 CALM      30.18F
COLUMBIA       PTSUNNY   79  72  78 S5        30.15S
SHELBYVILLE    CLOUDY    73  70  88 CALM      30.19S
$$

TNZ017-018-042-046-047-301800-
NORTHEAST TENNESSEE

CITY           SKY/WX    TMP DP  RH WIND       PRES   REMARKS
TRI CITIES     CLOUDY    77  63  61 CALM      30.20F
ELIZABETHTON   SUNNY     75  61  60 CALM      30.21F
$$

TNZ012-013-036-069-073-074-301800-
CENTRAL EAST TENNESSEE

CITY           SKY/WX    TMP DP  RH WIND       PRES   REMARKS
KNOXVILLE      CLOUDY    70  65  84 E5        30.17S
OAK RIDGE      CLOUDY    78  66  66 CALM      30.18F
GATLINBURG     SUNNY     75  63  64 CALM      30.16F
MORRISTOWN     SUNNY     75  64  69 E5        30.20S
$$

TNZ083-085-099-301800-
SOUTHEAST TENNESSEE

CITY           SKY/WX    TMP DP  RH WIND       PRES   REMARKS
CHATTANOOGA    CLOUDY    78  67  68 N6        30.15F
$$

SKY/WX REPORTED AS FAIR MEANS FEW OR NO CLOUDS BELOW
12 THOUSAND FEET.



USA.gov is the U.S. government's official web portal to all federal, state and local government web resources and services.